Tracking 29093 objects as of 15-Jul-2024
HD Live streaming from Space Station
objects crossing your sky now

METEOR 1-14

Track METEOR 1-14 now!
10-day predictions
METEOR 1-14 is classified as:


NORAD ID: 6392
Int'l Code: 1973-015A
Perigee: 835.8 km
Apogee: 912.0 km
Inclination: 81.2 °
Period: 102.3 minutes
Semi major axis: 7244 km
RCS: 4.8967 m2 (large)
Launch date: March 20, 1973
Source: Commonwealth of Independent States (former USSR) (CIS)
Launch site: PLESETSK MISSILE AND SPACE COMPLEX (PKMTR)
Your satellite tracking list
Your tracking list is empty




NASA's NSSDC Master Catalog

Two Line Element Set (TLE):
1  6392U 73015A   24196.87198913  .00000043  00000-0  17929-4 0  9993
2  6392  81.2327 250.1125 0052550  21.1811 339.1517 14.07841685634097
Source of the keplerian elements: AFSPC